Location: Gellin
(53.4498°N, 14.3207°E)
Time: 22:12:03
(UTC+00:00)

SeaSat 1 - Pass Details

Date: 03 March 2021
Orbit: 744 x 747 km, 108.0° (Epoch: 12 April)

Event Time Altitude Azimuth Distance (km) Brightness Sun altitude
Rises 19:31:16 0° 30° (NNE) 3,204 5.7 -25.1°
Reaches altitude 10° 19:33:37 10° 24° (NNE) 2,277 5.0 -25.4°
Maximum altitude 19:38:19 45° 313° (NW) 1,013 3.5 -26.0°
Drops below altitude 10° 19:43:00 10° 241° (WSW) 2,266 5.3 -26.6°
Sets 19:45:19 0° 236° (SW) 3,187 6.1 -26.9°
